FW7740 Weather Reports


time (UTC)temp
F
wind
direction
speed
knots
gust
knots
rain 1hr
in
rain 24hr
in
rain mn
in
humidity
%
barometer
mb
20260508082856 44 283 0.0 0.0 0.00 0.00 0.00 95 1014.6
20260508082354 44 283 0.0 0.0 0.00 0.00 0.00 95 1014.2
20260508081852 44 283 0.0 0.0 0.00 0.00 0.00 95 1014.2
20260508081348 44 283 0.0 0.0 0.00 0.00 0.00 95 1014.2
20260508080845 44 283 0.0 0.0 0.00 0.00 0.00 95 1014.2
20260508080343 44 283 0.0 0.0 0.00 0.00 0.00 95 1014.2
20260508075839 44 283 0.0 0.0 0.00 0.00 0.00 95 1014.2
20260508075336 44 283 0.0 0.0 0.00 0.00 0.00 95 1014.6
20260508074834 44 283 0.0 0.0 0.00 0.00 0.00 95 1014.2
20260508074331 44 283 0.0 0.0 0.00 0.00 0.00 94 1014.6
20260508073828 44 283 0.0 0.0 0.00 0.00 0.00 94 1014.2
20260508073326 44 283 0.0 0.0 0.00 0.00 0.00 94 1014.6
20260508072822 44 283 0.0 0.0 0.00 0.00 0.00 94 1014.6
20260508072319 44 283 0.0 0.0 0.00 0.00 0.00 94 1014.6
20260508071816 44 283 0.0 0.0 0.00 0.00 0.00 94 1014.6
20260508071314 44 283 0.0 0.0 0.00 0.00 0.00 94 1014.6
20260508070811 44 283 0.0 0.0 0.00 0.00 0.00 93 1014.6
20260508070310 44 283 0.0 0.0 0.00 0.00 0.00 93 1014.6
20260508065807 45 283 0.0 0.0 0.00 0.00 0.00 93 1014.9
20260508065307 45 283 0.0 0.0 0.00 0.00 0.00 93 1014.9
20260508064803 45 283 0.0 0.0 0.00 0.00 0.00 94 1014.9
20260508064300 45 282 0.0 0.0 0.00 0.00 0.00 94 1014.9
20260508063757 45 283 0.0 0.0 0.00 0.00 0.00 94 1014.9
20260508063256 45 283 0.0 0.0 0.00 0.00 0.00 94 1015.3
20260508062752 45 283 0.0 0.0 0.00 0.00 0.00 93 1015.3
20260508062250 45 283 0.0 0.0 0.00 0.00 0.00 93 1014.9
20260508061746 45 283 0.0 0.0 0.00 0.00 0.00 93 1015.3
20260508061243 45 283 0.0 0.0 0.00 0.00 0.00 93 1015.6
20260508060740 45 283 0.0 0.0 0.00 0.00 0.00 93 1015.3
20260508060238 45 283 0.0 0.0 0.00 0.00 0.00 93 1015.6
20260508055733 45 283 0.0 0.0 0.00 0.00 0.00 93 1015.6
20260508055231 45 283 0.0 0.0 0.00 0.00 0.00 93 1015.3
20260508054727 46 283 0.0 0.0 0.00 0.00 0.00 92 1015.3
20260508054225 46 283 0.0 0.0 0.00 0.00 0.00 93 1015.6
20260508053721 46 283 0.0 0.0 0.00 0.00 0.00 93 1015.6
20260508053219 46 283 0.0 0.0 0.00 0.00 0.00 92 1015.6
20260508052716 46 283 0.0 0.0 0.00 0.00 0.00 92 1015.6
20260508052213 46 283 0.0 0.0 0.00 0.00 0.00 92 1015.3
20260508051709 46 283 0.0 0.0 0.00 0.00 0.00 91 1015.6
20260508051205 46 283 0.0 0.0 0.00 0.00 0.00 91 1015.6
20260508050701 46 283 0.0 0.0 0.00 0.00 0.00 91 1015.6
20260508050159 47 283 0.0 0.0 0.00 0.00 0.00 91 1015.3
20260508045654 47 283 0.0 0.0 0.00 0.00 0.00 91 1015.3
20260508045153 47 283 0.0 0.0 0.00 0.00 0.00 91 1015.6
20260508044650 47 283 0.0 0.0 0.00 0.00 0.00 91 1015.9
20260508044146 47 283 0.0 0.0 0.00 0.00 0.00 91 1015.6
20260508043642 47 283 0.0 0.0 0.00 0.00 0.00 90 1015.6
20260508043140 47 283 0.0 0.0 0.00 0.00 0.00 90 1015.9
20260508042636 47 283 0.0 0.0 0.00 0.00 0.00 90 1015.6
20260508042134 48 282 0.0 0.0 0.00 0.00 0.00 89 1015.9
20260508041630 48 283 0.0 0.0 0.00 0.00 0.00 89 1016.3
20260508041127 48 283 0.0 0.0 0.00 0.00 0.00 89 1016.3
20260508040623 48 282 0.9 0.9 0.00 0.00 0.00 88 1016.3
20260508040121 48 281 0.9 0.9 0.00 0.00 0.00 88 1016.3
20260508035618 48 284 0.0 0.0 0.00 0.00 0.00 88 1015.9
20260508035115 48 291 0.0 0.0 0.00 0.00 0.00 88 1016.3
20260508034612 48 292 0.9 0.9 0.00 0.00 0.00 88 1016.6
20260508034109 48 294 0.0 0.0 0.00 0.00 0.00 88 1016.3
20260508033606 48 294 1.7 0.9 0.00 0.00 0.00 88 1016.3
20260508033105 48 309 0.0 0.0 0.00 0.00 0.00 88 1016.3
20260508032601 48 311 0.0 0.0 0.00 0.00 0.00 88 1016.3
20260508032059 49 311 0.0 0.0 0.00 0.00 0.00 88 1016.3
20260508031555 49 311 0.0 0.0 0.00 0.00 0.00 87 1016.3
20260508031051 50 311 0.0 0.0 0.00 0.00 0.00 86 1016.3
20260508030548 50 311 0.0 0.0 0.00 0.00 0.00 86 1015.9
20260508030046 50 310 0.0 0.0 0.00 0.00 0.00 85 1015.9
20260508025542 50 322 0.0 0.0 0.00 0.00 0.00 84 1015.9
20260508025039 50 322 0.0 0.0 0.00 0.00 0.00 85 1015.9
20260508024535 50 323 0.0 0.0 0.00 0.00 0.00 85 1015.9
20260508024033 50 323 0.0 0.0 0.00 0.00 0.00 85 1016.3
20260508023529 51 323 0.0 0.0 0.00 0.00 0.00 84 1015.6
20260508023026 51 323 0.0 0.0 0.00 0.00 0.00 84 1015.6
20260508022522 51 323 0.0 0.0 0.00 0.00 0.00 83 1015.6
20260508022019 51 323 0.0 0.0 0.00 0.00 0.00 82 1015.3
20260508021515 51 323 0.0 0.0 0.00 0.00 0.00 81 1015.3
20260508021011 52 323 0.0 0.0 0.00 0.00 0.00 80 1015.3
20260508020509 52 323 0.0 0.0 0.00 0.00 0.00 79 1015.3
20260508020006 52 323 0.0 0.0 0.00 0.00 0.00 78 1015.3
20260508015503 53 323 0.0 0.0 0.00 0.00 0.00 77 1015.3
20260508015000 53 323 0.0 0.0 0.00 0.00 0.00 76 1015.3
20260508014456 54 323 0.0 0.0 0.00 0.00 0.00 76 1015.3
20260508013952 54 323 0.0 0.0 0.00 0.00 0.00 73 1015.3
20260508013448 55 323 0.0 0.0 0.00 0.00 0.00 71 1015.3
20260508012946 55 323 0.0 0.0 0.00 0.00 0.00 69 1015.3
20260508012443 56 323 0.0 0.0 0.00 0.00 0.00 69 1015.3
20260508011940 56 323 0.0 0.0 0.00 0.00 0.00 68 1014.9
20260508011438 57 323 0.0 0.0 0.00 0.00 0.00 66 1015.3
20260508010936 58 323 0.0 0.0 0.00 0.00 0.00 63 1014.9
20260508010432 58 323 0.0 0.0 0.00 0.00 0.00 60 1014.9
20260508005930 59 323 0.0 0.0 0.00 0.00 0.00 58 1014.9
20260508005427 60 323 0.0 0.0 0.00 0.00 0.00 57 1014.9
20260508004923 60 323 0.0 0.0 0.00 0.00 0.00 54 1014.9
20260508004419 61 323 0.0 0.0 0.00 0.00 0.00 54 1014.6
20260508003916 61 323 0.0 0.0 0.00 0.00 0.00 52 1014.6
20260508003413 62 323 0.0 0.0 0.00 0.00 0.00 50 1014.6
20260508002910 62 323 0.0 0.0 0.00 0.00 0.00 48 1014.6
20260508002406 62 323 0.0 0.0 0.00 0.00 0.00 48 1014.6
20260508001902 63 323 0.0 0.0 0.00 0.00 0.00 46 1014.2
20260508001358 63 323 0.0 0.0 0.00 0.00 0.00 46 1014.6
20260508000855 63 306 0.0 0.0 0.00 0.00 0.00 46 1014.6
20260508000351 64 294 0.0 0.0 0.00 0.00 0.00 45 1014.6
20260507235848 64 193 1.7 1.7 0.00 0.00 0.00 43 1014.6
20260507235346 64 301 0.0 0.0 0.00 0.00 0.00 46 1014.9
20260507234843 64 291 0.0 0.0 0.00 0.00 0.00 44 1014.6
20260507234339 64 302 0.0 0.0 0.00 0.00 0.00 43 1014.6
20260507233835 65 291 1.7 1.7 0.00 0.00 0.00 42 1014.6
20260507233333 65 309 0.9 0.9 0.00 0.00 0.00 43 1014.6
20260507232831 65 339 0.9 0.9 0.00 0.00 0.00 41 1014.9
20260507232327 65 342 0.0 0.0 0.00 0.00 0.00 44 1014.9
20260507231825 65 278 0.9 1.7 0.00 0.00 0.00 43 1014.9
20260507231321 65 296 0.9 0.9 0.00 0.00 0.00 43 1014.9
20260507230818 65 297 0.0 0.0 0.00 0.00 0.00 42 1014.9
20260507230316 66 308 0.9 0.9 0.00 0.00 0.00 40 1014.9
20260507225815 66 303 0.0 0.0 0.00 0.00 0.00 40 1014.9
20260507225311 66 234 3.5 4.3 0.00 0.00 0.00 39 1015.3
20260507224807 66 288 0.9 0.9 0.00 0.00 0.00 39 1015.3
20260507224304 67 282 0.9 1.7 0.00 0.00 0.00 38 1015.3
20260507223800 66 287 1.7 1.7 0.00 0.00 0.00 39 1015.3
20260507223257 67 334 0.0 0.0 0.00 0.00 0.00 40 1015.3
20260507222754 67 289 0.9 1.7 0.00 0.00 0.00 38 1015.3
20260507222250 67 343 1.7 2.6 0.00 0.00 0.00 38 1015.3
20260507221748 67 313 0.0 0.9 0.00 0.00 0.00 39 1015.3
20260507221244 67 162 3.5 4.3 0.00 0.00 0.00 37 1015.6
20260507220740 67 189 2.6 2.6 0.00 0.00 0.00 36 1015.6
20260507220238 68 282 0.9 0.9 0.00 0.00 0.00 36 1015.3
20260507215734 68 19 1.7 2.6 0.00 0.00 0.00 36 1015.6
20260507215232 68 27 0.9 0.9 0.00 0.00 0.00 36 1015.6
20260507214729 68 236 1.7 2.6 0.00 0.00 0.00 34 1015.6
20260507214226 68 238 1.7 1.7 0.00 0.00 0.00 37 1015.6
20260507213721 68 111 0.9 2.6 0.00 0.00 0.00 34 1015.6
20260507213219 69 173 2.6 1.7 0.00 0.00 0.00 35 1015.3
20260507212714 68 62 3.5 5.2 0.00 0.00 0.00 34 1015.6
20260507212211 69 180 3.5 4.3 0.00 0.00 0.00 34 1015.6
20260507211708 69 25 0.9 0.9 0.00 0.00 0.00 34 1015.6
20260507211204 68 239 0.9 0.9 0.00 0.00 0.00 35 1015.9
20260507210701 69 286 3.5 6.1 0.00 0.00 0.00 33 1015.9
20260507210158 69 284 0.0 0.0 0.00 0.00 0.00 36 1015.6
20260507205654 69 331 0.9 0.9 0.00 0.00 0.00 34 1015.9
20260507205151 69 133 3.5 2.6 0.00 0.00 0.00 33 1016.3
20260507204647 68 72 2.6 2.6 0.00 0.00 0.00 33 1015.9
20260507204145 69 251 0.9 1.7 0.00 0.00 0.00 33 1016.3
20260507203643 69 142 1.7 1.7 0.00 0.00 0.00 33 1016.3
20260507203140 68 29 1.7 1.7 0.00 0.00 0.00 33 1016.3
20260507202636 70 170 4.3 4.3 0.00 0.00 0.00 31 1016.3
20260507202132 69 163 2.6 2.6 0.00 0.00 0.00 32 1016.3
20260507201627 68 162 2.6 2.6 0.00 0.00 0.00 34 1016.6
20260507201125 69 6 0.0 0.0 0.00 0.00 0.00 31 1016.6
20260507200620 68 276 0.9 0.9 0.00 0.00 0.00 33 1016.6
20260507200116 68 206 2.6 5.2 0.00 0.00 0.00 32 1017.0
20260507195614 69 38 4.3 5.2 0.00 0.00 0.00 30 1017.0
20260507195111 68 161 1.7 1.7 0.00 0.00 0.00 32 1017.0
20260507194607 69 175 2.6 2.6 0.00 0.00 0.00 31 1017.0
20260507194103 69 169 3.5 4.3 0.00 0.00 0.00 31 1017.0
20260507193600 69 174 2.6 4.3 0.00 0.00 0.00 31 1016.6
20260507193057 67 242 3.5 4.3 0.00 0.00 0.00 32 1017.0
20260507192553 67 344 2.6 2.6 0.00 0.00 0.00 32 1017.3
20260507192050 68 22 2.6 2.6 0.00 0.00 0.00 29 1017.3
20260507191546 68 268 0.9 1.7 0.00 0.00 0.00 31 1017.6
20260507191043 68 140 7.0 7.8 0.00 0.00 0.00 29 1017.3
20260507190540 68 158 4.3 5.2 0.00 0.00 0.00 31 1017.3
20260507190039 69 191 1.7 1.7 0.00 0.00 0.00 29 1017.3
20260507185537 68 293 4.3 7.0 0.00 0.00 0.00 31 1017.3
20260507185033 67 109 2.6 1.7 0.00 0.00 0.00 30 1017.3
20260507184532 67 55 0.9 0.9 0.00 0.00 0.00 29 1017.3
20260507184029 67 152 0.0 0.9 0.00 0.00 0.00 29 1017.3
20260507183525 67 264 0.9 0.9 0.00 0.00 0.00 29 1017.3
20260507183022 67 56 0.0 0.0 0.00 0.00 0.00 30 1017.6
20260507182518 66 89 2.6 4.3 0.00 0.00 0.00 30 1017.6
20260507182014 67 44 3.5 4.3 0.00 0.00 0.00 29 1017.6
20260507181511 68 319 0.0 0.0 0.00 0.00 0.00 33 1017.6
20260507181008 67 178 0.9 1.7 0.00 0.00 0.00 30 1018.1
20260507180504 67 322 1.7 2.6 0.00 0.00 0.00 30 1018.1
20260507180000 67 333 0.0 0.0 0.00 0.00 0.00 30 1018.1
20260507175457 67 2 2.6 4.3 0.00 0.00 0.00 29 1018.8
20260507174955 66 38 2.6 4.3 0.00 0.00 0.00 28 1018.4
20260507174452 66 80 5.2 7.0 0.00 0.00 0.00 27 1018.1
20260507173949 66 116 2.6 2.6 0.00 0.00 0.00 29 1018.4
20260507173446 66 151 0.9 0.9 0.00 0.00 0.00 29 1018.4
20260507172943 66 131 2.6 4.3 0.00 0.00 0.00 30 1018.8
20260507172439 65 183 2.6 2.6 0.00 0.00 0.00 29 1018.8
20260507171936 65 160 2.6 4.3 0.00 0.00 0.00 29 1019.1
20260507171432 66 203 4.3 5.2 0.00 0.00 0.00 29 1018.8
20260507170929 66 135 2.6 2.6 0.00 0.00 0.00 30 1018.8
20260507170426 65 131 2.6 2.6 0.00 0.00 0.00 31 1019.1
20260507165922 65 59 1.7 1.7 0.00 0.00 0.00 30 1019.1
20260507165418 66 168 2.6 4.3 0.00 0.00 0.00 30 1019.1
20260507164914 65 220 1.7 1.7 0.00 0.00 0.00 31 1019.1
20260507164411 64 346 1.7 1.7 0.00 0.00 0.00 30 1019.1
20260507163908 64 120 1.7 1.7 0.00 0.00 0.00 32 1019.1
20260507163406 65 179 4.3 5.2 0.00 0.00 0.00 31 1019.4
20260507162902 65 170 2.6 4.3 0.00 0.00 0.00 32 1019.4
20260507162357 65 112 0.9 0.9 0.00 0.00 0.00 31 1019.4
20260507161855 64 31 1.7 2.6 0.00 0.00 0.00 31 1019.4
20260507161351 62 152 1.7 1.7 0.00 0.00 0.00 32 1019.4
20260507160848 63 164 6.1 7.0 0.00 0.00 0.00 33 1019.1
20260507160343 63 57 1.7 2.6 0.00 0.00 0.00 33 1019.4
20260507155840 63 166 0.0 0.0 0.00 0.00 0.00 34 1019.1
20260507155336 62 224 4.3 5.2 0.00 0.00 0.00 37 1019.4
20260507154833 63 1 3.5 5.2 0.00 0.00 0.00 34 1019.4
20260507154330 64 296 0.9 0.9 0.00 0.00 0.00 36 1019.8
20260507153827 63 324 0.9 0.9 0.00 0.00 0.00 36 1019.4
20260507153323 63 202 2.6 2.6 0.00 0.00 0.00 35 1019.8
20260507152820 64 218 2.6 2.6 0.00 0.00 0.00 37 1019.4
20260507152316 63 243 0.9 0.9 0.00 0.00 0.00 37 1019.8
20260507151812 62 129 1.7 1.7 0.00 0.00 0.00 37 1019.4
20260507151309 63 161 3.5 5.2 0.00 0.00 0.00 36 1019.8
20260507150806 62 346 0.9 0.9 0.00 0.00 0.00 36 1019.8
20260507150302 62 182 0.9 0.9 0.00 0.00 0.00 39 1019.8
20260507145759 61 234 2.6 2.6 0.00 0.00 0.00 41 1019.8
20260507145255 60 214 2.6 2.6 0.00 0.00 0.00 41 1019.8
20260507144752 60 158 4.3 5.2 0.00 0.00 0.00 41 1019.8
20260507144250 61 159 2.6 2.6 0.00 0.00 0.00 41 1019.8
20260507143746 61 49 0.0 0.9 0.00 0.00 0.00 41 1020.1
20260507143244 59 183 0.0 0.0 0.00 0.00 0.00 46 1019.8
20260507142739 59 168 1.7 1.7 0.00 0.00 0.00 47 1019.8
20260507142236 58 171 2.6 2.6 0.00 0.00 0.00 50 1020.1
20260507141732 58 194 1.7 1.7 0.00 0.00 0.00 51 1020.1
20260507141230 57 143 2.6 4.3 0.00 0.00 0.00 53 1020.1
20260507140725 57 181 2.6 2.6 0.00 0.00 0.00 59 1019.8
20260507140224 57 55 0.9 0.9 0.00 0.00 0.00 61 1020.4
20260507135720 56 53 0.0 0.0 0.00 0.00 0.00 63 1020.1
20260507135218 54 53 0.0 0.0 0.00 0.00 0.00 65 1020.1
20260507134714 54 53 0.0 0.0 0.00 0.00 0.00 65 1020.1
20260507134210 54 53 0.0 0.0 0.00 0.00 0.00 67 1020.1
20260507133706 52 53 0.0 0.0 0.00 0.00 0.00 70 1020.1
20260507133203 50 53 0.0 0.0 0.00 0.00 0.00 74 1020.1
20260507132700 50 54 0.9 0.9 0.00 0.00 0.00 77 1020.4
20260507132157 50 151 0.9 0.9 0.00 0.00 0.00 76 1020.4
20260507131654 49 233 0.0 0.0 0.00 0.00 0.00 77 1020.1
20260507131151 48 239 0.0 0.0 0.00 0.00 0.00 78 1020.4
20260507130647 47 239 0.0 0.0 0.00 0.00 0.00 79 1020.4
20260507130145 46 240 0.0 0.9 0.00 0.00 0.00 80 1020.4
20260507125644 46 240 0.9 0.9 0.00 0.00 0.00 81 1020.1
20260507125142 45 242 0.0 0.0 0.00 0.00 0.00 82 1020.4
20260507124637 44 243 0.0 0.0 0.00 0.00 0.00 87 1020.4
20260507124135 43 245 1.7 1.7 0.00 0.00 0.00 88 1020.4
20260507123633 42 253 0.9 0.9 0.00 0.00 0.00 89 1020.4
20260507123130 41 260 1.7 1.7 0.00 0.00 0.00 90 1020.1
20260507122625 41 261 0.9 0.9 0.00 0.00 0.00 90 1020.4
20260507122116 41 288 0.0 0.0 0.00 0.00 0.00 91 1020.4
20260507121612 40 288 0.0 0.0 0.00 0.00 0.00 91 1020.1
20260507121108 40 288 0.0 0.0 0.00 0.00 0.00 92 1020.1
20260507120604 39 288 0.0 0.0 0.00 0.00 0.00 93 1019.8
20260507115557 39 288 0.0 0.0 0.00 0.00 0.00 94 1020.1
20260507115053 39 286 0.0 0.0 0.00 0.00 0.00 94 1019.8
20260507114549 39 292 0.0 0.0 0.00 0.00 0.00 94 1019.8
20260507114047 38 300 0.0 0.0 0.00 0.00 0.00 95 1019.8
20260507113544 38 300 0.0 0.0 0.00 0.00 0.00 95 1019.8
20260507113041 38 300 0.0 0.0 0.00 0.00 0.00 94 1019.8
20260507112539 38 300 0.0 0.0 0.00 0.00 0.00 94 1019.8
20260507112035 38 300 0.0 0.0 0.00 0.00 0.00 94 1019.8
20260507111532 38 300 0.0 0.0 0.00 0.00 0.00 94 1019.8
20260507111029 38 300 0.0 0.0 0.00 0.00 0.00 94 1019.8
20260507110525 38 300 0.0 0.0 0.00 0.00 0.00 93 1019.4
20260507110022 38 300 0.0 0.0 0.00 0.00 0.00 93 1019.8
20260507105519 38 300 0.0 0.0 0.00 0.00 0.00 93 1019.8
20260507105015 38 300 0.0 0.0 0.00 0.00 0.00 93 1019.8
20260507104513 38 300 0.0 0.0 0.00 0.00 0.00 94 1019.8
20260507104008 38 300 0.0 0.0 0.00 0.00 0.00 94 1019.8
20260507103500 38 300 0.0 0.0 0.00 0.00 0.00 93 1019.4
20260507102955 38 300 0.0 0.0 0.00 0.00 0.00 93 1019.8
20260507102453 38 300 0.0 0.0 0.00 0.00 0.00 93 1019.8
20260507101949 38 300 0.0 0.0 0.00 0.00 0.00 93 1019.8
20260507101444 38 300 0.0 0.0 0.00 0.00 0.00 93 1019.8
20260507100940 38 300 0.0 0.0 0.00 0.00 0.00 93 1019.4
20260507100438 38 300 0.0 0.0 0.00 0.00 0.00 93 1019.8
20260507095936 38 300 0.0 0.0 0.00 0.00 0.00 93 1019.8
20260507095433 38 300 0.0 0.0 0.00 0.00 0.00 94 1019.8
20260507094924 37 300 0.0 0.0 0.00 0.00 0.00 94 1019.8
20260507094420 37 301 0.0 0.0 0.00 0.00 0.00 94 1019.8
20260507093917 37 301 0.0 0.0 0.00 0.00 0.00 94 1019.8
20260507093415 37 301 0.0 0.0 0.00 0.00 0.00 94 1019.4
20260507092914 37 300 0.0 0.0 0.00 0.00 0.00 95 1019.4
20260507092409 37 301 0.0 0.0 0.00 0.00 0.00 95 1019.4
20260507091906 37 301 0.0 0.0 0.00 0.00 0.00 95 1019.4
20260507091403 36 301 0.0 0.0 0.00 0.00 0.00 95 1019.8
20260507090858 36 301 0.0 0.0 0.00 0.00 0.00 95 1019.4
20260507090355 36 301 0.0 0.0 0.00 0.00 0.00 95 1019.4
20260507085852 36 301 0.0 0.0 0.00 0.00 0.00 95 1019.1
20260507085348 36 301 0.0 0.0 0.00 0.00 0.00 95 1019.4
20260507084846 36 301 0.0 0.0 0.00 0.00 0.00 94 1019.4
20260507084342 36 301 0.0 0.0 0.00 0.00 0.00 95 1019.1
20260507083840 36 301 0.0 0.0 0.00 0.00 0.00 94 1019.4
20260507083336 36 301 0.0 0.0 0.00 0.00 0.00 94 1019.4